Change the Weather History Date:

Friday, March 28, 2014

  Actual Average Record
Temperature  
Mean Temperature 42 °F -  
Max Temperature 53 °F 55 °F 66 °F (2012)
Min Temperature 32 °F 36 °F 24 °F (2002)
Degree Days  
Heating Degree Days 22    
Moisture  
Dew Point 36 °F    
Average Humidity 72    
Maximum Humidity 93    
Minimum Humidity 39    
Precipitation  
Precipitation 0.00 in 0.05 in - ()
Sea Level Pressure  
Sea Level Pressure 30.09 in    
Wind  
Wind Speed 5 mph ()    
Max Wind Speed 11 mph    
Max Gust Speed -    
Visibility 6.9 miles    
Events Rain    
Averages and records for this station are not official NWS values.
T = Trace of Precipitation, MM = Missing Value Source: Averaged Metar Reports

Daily Weather History Graph

Daily Weather History Graph

Search for Another Location

Airport or City:

Trip Planner

Search our weather history database for the weather conditions in past years. The results will help you decide how hot, cold, wet, or windy it might be!

Date:

Astronomy

Mar. 28, 2014 Rise Set
Actual Time 5:48 AM CET 6:28 PM CET
Civil Twilight 5:16 AM CET 7:01 PM CET
Nautical Twilight 4:37 AM CET 7:40 PM CET
Astronomical Twilight 3:56 AM CET 8:21 PM CET
Moon 4:23 AM CET (3/28) 3:52 PM CET (3/28)
Length of Visible Light 13h 44m
Length of Day
12h 39m
Waning Crescent, 7% of the Moon is Illuminated
Mar 28
Waning Crescent
Mar 30
New
Apr 7
First Quarter
Apr 15
Full
Apr 22
Last Quarter

Hourly Weather History & Observations

Time (CET) Temp. Windchill Dew Point Humidity Pressure Visibility Wind Dir Wind Speed Gust Speed Precip Events Conditions
12:00 AM 42 °F - 34 °F 66% 30.04 in 12 mi East 11.2 mph - -   Clear
12:00 AM 41.0 °F 36.4 °F 33.8 °F 76% 29.98 in - East 6.9 mph - N/A   Clear
12:30 AM 41.0 °F 38.0 °F 33.8 °F 76% 30.01 in - North 4.6 mph - N/A   Clear
1:00 AM 40 °F - 33 °F 69% 30.06 in 9 mi ENE 4.5 mph - -   Clear
1:00 AM 39.2 °F 35.0 °F 33.8 °F 81% 30.01 in - NE 5.8 mph - N/A   Clear
1:30 AM 41.0 °F 38.0 °F 33.8 °F 76% 30.01 in - NNE 4.6 mph - N/A   Clear
2:00 AM 37 °F - 33 °F 79% 30.06 in 12 mi North 4.5 mph - -   Clear
2:00 AM 37.4 °F 33.8 °F 32.0 °F 81% 30.01 in - North 4.6 mph - N/A   Clear
2:30 AM 37.4 °F 34.9 °F 32.0 °F 81% 30.01 in - North 3.5 mph - N/A   Clear
3:00 AM 36 °F - 33 °F 82% 30.06 in 7 mi North 2.2 mph - -   Clear
3:00 AM 35.6 °F 32.8 °F 32.0 °F 87% 30.01 in - NNW 3.5 mph - N/A   Clear
3:30 AM 35.6 °F 31.7 °F 33.8 °F 93% 30.01 in - North 4.6 mph - N/A   Clear
4:00 AM 36 °F - 33 °F 82% 30.07 in 6 mi NNE 6.7 mph - -   Clear
4:00 AM 35.6 °F 31.7 °F 32.0 °F 87% 30.01 in - North 4.6 mph - N/A   Clear
4:30 AM 33.8 °F 29.6 °F 30.2 °F 87% 30.01 in - NNW 4.6 mph - N/A   Clear
5:00 AM 34 °F - 32 °F 88% 30.08 in 6 mi NW 2.2 mph - -   Mostly Cloudy
5:00 AM 33.8 °F 29.6 °F 32.0 °F 93% 30.01 in - NW 4.6 mph - N/A   Clear
5:30 AM 35.6 °F 32.8 °F 32.0 °F 87% 30.01 in 5.6 mi NW 3.5 mph - N/A   Unknown
6:00 AM 37 °F - 33 °F 81% 30.08 in 7 mi West 4.5 mph - -   Mostly Cloudy
6:00 AM 37.4 °F 34.9 °F 33.8 °F 87% 30.04 in - WSW 3.5 mph - N/A   Clear
6:30 AM 37.4 °F - 33.8 °F 87% 30.04 in - West 2.3 mph - N/A   Clear
7:00 AM 39 °F - 35 °F 80% 30.09 in 7 mi NW 2.2 mph - -   Mostly Cloudy
7:00 AM 39.2 °F - 35.6 °F 87% 30.04 in - Variable 2.3 mph - N/A   Clear
7:30 AM 41.0 °F 39.0 °F 35.6 °F 81% 30.04 in - NNW 3.5 mph - N/A   Clear
8:00 AM 41 °F - 36 °F 74% 30.09 in 6 mi North 6.7 mph - -   Mostly Cloudy
8:00 AM 41.0 °F - 35.6 °F 81% 30.04 in - North 2.3 mph - N/A   Clear
8:30 AM 41.0 °F - 35.6 °F 81% 30.06 in 6.2 mi Variable 1.2 mph - N/A   Partly Cloudy
9:00 AM 42 °F - 36 °F 71% 30.11 in 6 mi NNE 2.2 mph - -   Mostly Cloudy
9:00 AM 42.8 °F - 35.6 °F 76% 30.06 in 6.2 mi Variable 2.3 mph - N/A   Mostly Cloudy
9:30 AM 42.8 °F 41.1 °F 35.6 °F 76% 30.06 in 6.2 mi NNE 3.5 mph - N/A   Mostly Cloudy
10:00 AM 43 °F - 37 °F 71% 30.12 in 6 mi ENE 4.5 mph - -   Overcast
10:00 AM 42.8 °F 41.1 °F 37.4 °F 81% 30.06 in 6.2 mi North 3.5 mph - N/A   Overcast
10:30 AM 42.8 °F 41.1 °F 37.4 °F 81% 30.06 in 5.0 mi North 3.5 mph - N/A Rain Light Rain
11:00 AM 44 °F - 38 °F 72% 30.12 in 5 mi ENE 6.7 mph - - Rain Light Rain
11:00 AM 44.6 °F 43.1 °F 37.4 °F 76% 30.09 in 5.0 mi NNE 3.5 mph - N/A   Overcast
11:30 AM 46.4 °F 43.5 °F 39.2 °F 76% 30.09 in 5.0 mi ENE 5.8 mph - N/A   Mostly Cloudy
12:00 PM 47 °F - 37 °F 60% 30.12 in 6 mi East 6.7 mph - -   Mist
12:00 PM 48.2 °F - 37.4 °F 66% 30.09 in 5.6 mi East 5.8 mph - N/A   Mostly Cloudy
12:30 PM 48.2 °F - 39.2 °F 71% 30.09 in 5.6 mi NE 4.6 mph - N/A   Mostly Cloudy
1:00 PM 49 °F - 38 °F 57% 30.12 in 6 mi NE 6.7 mph - -   Mist
1:00 PM 48.2 °F - 37.4 °F 66% 30.09 in 5.6 mi NE 6.9 mph - N/A   Mostly Cloudy
1:30 PM 50.0 °F - 39.2 °F 66% 30.09 in 6.2 mi East 5.8 mph - N/A   Mostly Cloudy
2:00 PM 50 °F - 37 °F 51% 30.12 in 6 mi ENE 8.9 mph - -   Partly Cloudy
2:00 PM 50.0 °F - 39.2 °F 66% 30.09 in 6.2 mi ENE 6.9 mph - N/A   Scattered Clouds
2:30 PM 51.8 °F - 37.4 °F 58% 30.09 in 6.2 mi East 5.8 mph - N/A   Scattered Clouds
3:00 PM 52 °F - 38 °F 47% 30.11 in 7 mi ENE 6.7 mph - -   Partly Cloudy
3:00 PM 53.6 °F - 39.2 °F 58% 30.09 in 6.2 mi ESE 5.8 mph - N/A   Scattered Clouds
3:30 PM 51.8 °F - 37.4 °F 58% 30.09 in 6.2 mi East 8.1 mph - N/A   Partly Cloudy
4:00 PM 54 °F - 36 °F 39% 30.11 in 9 mi ESE 4.5 mph - -   Scattered Clouds
4:00 PM 53.6 °F - 35.6 °F 51% 30.09 in 6.2 mi East 4.6 mph - N/A   Partly Cloudy
4:30 PM 53.6 °F - 35.6 °F 51% 30.09 in 6.2 mi Variable 3.5 mph - N/A   Partly Cloudy
5:00 PM 53 °F - 38 °F 44% 30.11 in 11 mi NNE 4.5 mph - -   Scattered Clouds
5:00 PM 53.6 °F - 39.2 °F 58% 30.09 in 6.2 mi NE 4.6 mph - N/A   Partly Cloudy
5:30 PM 51.8 °F - 37.4 °F 58% 30.09 in - NE 6.9 mph - N/A   Clear
6:00 PM 50 °F - 37 °F 50% 30.13 in 11 mi NE 8.9 mph - -   Clear
6:00 PM 50.0 °F - 37.4 °F 62% 30.12 in - NE 6.9 mph - N/A   Clear
6:30 PM 48.2 °F - 37.4 °F 66% 30.12 in - NE 5.8 mph - N/A   Clear
7:00 PM 47 °F - 37 °F 58% 30.17 in 9 mi NE 6.7 mph - -   Partly Cloudy
7:00 PM 48.2 °F - 37.4 °F 66% 30.12 in - NE 5.8 mph - N/A   Clear
7:30 PM 46.4 °F 44.3 °F 35.6 °F 66% 30.15 in - NE 4.6 mph - N/A   Clear
8:00 PM 44 °F - 36 °F 64% 30.19 in 9 mi North 4.5 mph - -  
8:00 PM 44.6 °F 43.1 °F 35.6 °F 71% 30.15 in - NNE 3.5 mph - N/A   Clear
8:30 PM 42.8 °F - 35.6 °F 76% 30.15 in - Variable 2.3 mph - N/A   Clear
9:00 PM 43 °F - 37 °F 72% 30.20 in 9 mi NNW 2.2 mph - -  
9:00 PM 42.8 °F - 37.4 °F 81% 30.15 in - NE 2.3 mph - N/A   Clear
9:30 PM 44.6 °F - 37.4 °F 76% 30.15 in - NE 2.3 mph - N/A   Clear
10:00 PM 42 °F - 36 °F 74% 30.22 in 7 mi North 2.2 mph - -  
10:00 PM 41.0 °F - 35.6 °F 81% 30.18 in - NNW 2.3 mph - N/A   Clear
10:30 PM 41.0 °F 38.0 °F 35.6 °F 81% 30.18 in - NE 4.6 mph - N/A   Clear
11:00 PM 39 °F - 32 °F 69% 30.23 in 7 mi ENE 2.2 mph - -  
11:00 PM 39.2 °F - 33.8 °F 81% 30.18 in - Calm Calm - N/A   Clear
11:30 PM 41.0 °F - 35.6 °F 81% 30.18 in - NW 2.3 mph - N/A   Clear